Current weather by "City, St" or "zip code"  
 
Advertise Here

Current Conditions: Osceola Municipal Airport, IA

Fog/Mist


27.0 F

Last Updated on Jan 25 2021, 3:55 am CST
Humidity: 93%
Wind Speed: NE 11.5 mph
Barometer 29.97 in
Dewpoint: 24.8 F
Visibility: 5.00 mi
Precip: --
Heat Index: NA
Wind Chill: 17 F
Current conditions at:

Osceola Municipal Airport, IA (KI75)

Lat: 41.05222 Lon: 93.68966

Local Radar Image active severe weather and emergency alerts image image weather storm and storm spotter reports image weather observation monitoring service image
Local
Radar
Active
Alerts
Storm Reports Obs
Monitoring

Sign-up For Email & Text Message Weather Alert Notification Services


Advertise Here

Observation History for Osceola Municipal Airport, IA


Time Wind
(mph)
Vis
(mi)
Weather Precip (in) Temperature (F) Relative
Humidity
Wind
Chill
(F)
Heat
Index
(F)
Pressure
Air Dwpt altimeter
(in)
sea level
(mb)
Rmks
3:55 am CST NE 11.5 5.00 Fog/Mist -- 27.0 24.8 93% 17 NA 29.97 M
2:55 am CST NE 9.2 7.00 Overcast -- 27.0 24.6 92% 18 NA 29.98 M
1:55 am CST NE 9.2 7.00 Overcast -- 27.0 24.1 90% 18 NA 29.99 M
12:55 am CST NE 11.5 7.00 Overcast -- 27.0 23.9 90% 17 NA 30.00 M
11:55 pm CST NE 10.4 7.00 Overcast -- 27.0 23.9 90% 17 NA 30.03 M
10:55 pm CST NE 9.2 7.00 Overcast -- 27.0 24.3 90% 18 NA 30.04 M
9:55 pm CST NE 6.9 7.00 Overcast -- 27.0 24.4 90% 20 NA 30.05 M
8:55 pm CST NE 10.4 10.00 Overcast -- 27.0 24.1 89% 17 NA 30.03 M
7:55 pm CST NE 10.4 7.00 Overcast -- 28.0 24.8 88% 19 NA 30.04 M
6:55 pm CST NE 11.5 10.00 Overcast -- 29.0 25.7 88% 19 NA 30.05 M
5:55 pm CST NE 6.9 10.00 Overcast -- 30.0 26.6 88% 23 NA 30.06 M
4:55 pm CST NE 6.9 7.00 Overcast -- 31.0 26.8 85% 24 NA 30.06 M
3:55 pm CST NE 5.8 10.00 Overcast -- 32.0 27.3 84% 26 NA 30.05 M
2:55 pm CST N 8.1 7.00 Overcast -- 32.0 27.7 84% 25 NA 30.03 M
1:55 pm CST N 9.2 7.00 Overcast -- 32.0 27.5 83% 24 NA 30.04 M
12:55 pm CST N 10.4 7.00 Overcast -- 32.0 27.9 84% 24 NA 30.04 M
11:55 am CST N 9.2 5.00 Overcast with Haze -- 32.0 27.3 83% 24 NA 30.07 M
10:55 am CST N 9.2 7.00 Overcast -- 31.0 26.2 82% 23 NA 30.07 M
9:55 am CST N 8.1 7.00 Overcast -- 31.0 26.1 83% 24 NA 30.06 M
8:55 am CST N 5.8 7.00 Overcast -- 30.0 25.5 84% 24 NA 30.04 M
7:55 am CST N 8.1 7.00 Overcast -- 30.0 25.3 84% 22 NA 30.02 M
6:55 am CST N 5.8 7.00 Overcast -- 30.0 25.2 82% 24 NA 29.99 M
5:55 am CST NW 4.6 7.00 Overcast -- 31.0 25.5 82% 26 NA 29.97 M
4:55 am CST N 0.0 7.00 Overcast -- 31.0 25.3 79% NA NA 29.96 M

Regional Weather Observation


Des Moines International Airport, IA (KDSM)

Overcast
22.0 F

Chariton, IA (KCNC)

Fog/Mist
27.0 F

Creston Municipal Airport, IA (KCSQ)

Overcast
25.0 F

Ankeny Regional Airport, IA (KIKV)

Overcast
21.0 F

Knoxville, IA (KOXV)

Overcast
27.0 F

Perry Municipal Airport, IA (KPRO)

Overcast
20.0 F